User: anonymous   Login
Location: Unspecified
(0.0000°N, 0.0000°E)
Time: 13:26:27
(UTC+01:00)
Language:

IUS-9 SRM-1 - Orbit

View from above orbital plane
View from above orbital plane
View from above satellite
View from above satellite

Ground track
Ground track

The orbit data is extracted from the following two-line orbital elements,

1 19884U 89021C   16039.12620718  .00006564  00000-0  92241-3 0  9998
2 19884  26.5309  29.5954 6002029  18.8902 356.1679  4.05523510313669
Epoch (UTC): 08 February 2016 03:01:44
Eccentricity: 0.6002029
inclination: 26.5309°
perigee height: 263 km
apogee height: 20202 km
right ascension of ascending node: 29.5954°
argument of perigee: 18.8902°
revolutions per day: 4.05523510
mean anomaly at epoch: 356.1679°
orbit number at epoch: 31366

The dashed part of the orbit path shows where the satellite is in the earth's shadow,  

DLR